Weather History for KSHD - August, 2013

Change the Weather History Date:

Sunday, August 18, 2013

  Actual Average Record
Temperature  
Mean Temperature 62 °F -  
Max Temperature 66 °F 84 °F 93 °F (1999)
Min Temperature 59 °F 62 °F 55 °F (2008)
Degree Days  
Heating Degree Days 2    
Growing Degree Days 12 (Base 50)    
Moisture  
Dew Point 59 °F    
Average Humidity 89    
Maximum Humidity 94    
Minimum Humidity 78    
Precipitation  
Precipitation 0.90 in - - ()
Sea Level Pressure  
Sea Level Pressure 30.26 in    
Wind  
Wind Speed 3 mph (NNE)    
Max Wind Speed 7 mph    
Max Gust Speed -    
Visibility 7 miles    
Events Rain    
Averages and records for this station are not official NWS values.
T = Trace of Precipitation, MM = Missing Value Source: NWS Daily Summary

Daily Weather History Graph

Daily Weather History Graph

Search for Another Location

Airport or City:

Trip Planner

Search our weather history database for the weather conditions in past years. The results will help you decide how hot, cold, wet, or windy it might be!

Date:

Astronomy

Aug. 18, 2013 Rise Set
Actual Time 6:33 AM EDT 8:04 PM EDT
Civil Twilight 6:05 AM EDT 8:32 PM EDT
Nautical Twilight 5:31 AM EDT 9:06 PM EDT
Astronomical Twilight 4:55 AM EDT 9:41 PM EDT
Moon 6:08 PM EDT (8/18) 3:41 AM EDT (8/18)
Length of Visible Light 14h 27m
Length of Day
13h 31m
Waxing Gibbous, 92% of the Moon is Illuminated
Aug 18
Waxing Gibbous
Aug 20
Full
Aug 28
Last Quarter
Sep 5
New
Sep 12
First Quarter

Hourly Weather History & Observations

Time (EDT) Temp. Dew Point Humidity Pressure Visibility Wind Dir Wind Speed Gust Speed Precip Events Conditions
12:15 AM 62.6 °F 59.7 °F 90% 30.27 in 10.0 mi Calm Calm - 0.01 in Rain Light Rain
12:35 AM 63.1 °F 58.6 °F 85% 30.27 in 10.0 mi Calm Calm - 0.02 in Rain Light Rain
12:55 AM 62.2 °F 59.0 °F 89% 30.27 in 5.0 mi Calm Calm - 0.04 in Rain Light Rain
1:15 AM 62.1 °F 59.4 °F 91% 30.27 in 5.0 mi Calm Calm - 0.02 in Rain Rain
1:35 AM 62.1 °F 59.7 °F 92% 30.26 in 4.0 mi Calm Calm - 0.05 in Rain Rain
1:55 AM 62.2 °F 59.9 °F 92% 30.26 in 5.0 mi NW 3.5 mph - 0.08 in Rain Rain
2:15 AM 62.4 °F 60.1 °F 92% 30.25 in 5.0 mi North 3.5 mph - 0.03 in Rain Light Rain
2:35 AM 62.1 °F 59.9 °F 93% 30.25 in 5.0 mi Calm Calm - 0.04 in Rain Light Rain
2:55 AM 61.9 °F 59.5 °F 92% 30.25 in 5.0 mi Calm Calm - 0.06 in Rain Light Rain
3:15 AM 61.7 °F 59.7 °F 93% 30.25 in 4.0 mi NE 4.6 mph - 0.02 in Rain Light Rain
3:35 AM 61.7 °F 59.7 °F 93% 30.25 in 4.0 mi NNE 3.5 mph - 0.07 in Rain Rain
3:55 AM 61.2 °F 59.2 °F 93% 30.25 in 5.0 mi NE 5.8 mph - 0.09 in Rain Light Rain
4:15 AM 61.2 °F 59.2 °F 93% 30.24 in 4.0 mi NNE 4.6 mph - 0.04 in Rain Rain
4:35 AM 61.2 °F 59.4 °F 94% 30.23 in 4.0 mi NNE 5.8 mph - 0.09 in Rain Rain
4:55 AM 61.0 °F 59.2 °F 94% 30.23 in 5.0 mi NNE 5.8 mph - 0.11 in Rain Light Rain
5:15 AM 61.0 °F 59.0 °F 93% 30.24 in 5.0 mi NNE 6.9 mph - 0.01 in   Drizzle
5:35 AM 60.8 °F 59.0 °F 94% 30.24 in 4.0 mi North 3.5 mph - 0.03 in Rain Heavy Rain
5:55 AM 60.8 °F 59.0 °F 94% 30.23 in 3.0 mi NNE 5.8 mph - 0.06 in Rain Rain
6:15 AM 60.8 °F 59.0 °F 94% 30.24 in 4.0 mi Calm Calm - 0.01 in Rain Rain
6:35 AM 60.8 °F 59.0 °F 94% 30.24 in 5.0 mi NNE 5.8 mph - 0.02 in   Heavy Drizzle
6:55 AM 60.8 °F 59.0 °F 94% 30.25 in 2.5 mi North 4.6 mph - 0.08 in Rain Rain
7:15 AM 60.8 °F 59.0 °F 94% 30.25 in 2.5 mi North 3.5 mph - 0.05 in Rain Rain
7:35 AM 60.8 °F 59.0 °F 94% 30.25 in 2.5 mi NNE 4.6 mph - 0.11 in Rain Rain
7:55 AM 61.0 °F 59.2 °F 94% 30.26 in 3.0 mi NE 4.6 mph - 0.16 in Rain Rain
8:15 AM 60.4 °F 58.6 °F 94% 30.26 in 3.0 mi NE 4.6 mph - 0.05 in Rain Rain
8:35 AM 59.9 °F 58.1 °F 94% 30.28 in 4.0 mi NNW 4.6 mph - 0.10 in Rain Rain
8:55 AM 59.7 °F 57.9 °F 94% 30.28 in 5.0 mi North 6.9 mph - 0.13 in Rain Light Rain
9:15 AM 59.5 °F 57.4 °F 93% 30.28 in 7.0 mi North 6.9 mph - 0.01 in Rain Rain
9:35 AM 59.9 °F 57.7 °F 93% 30.28 in 7.0 mi NNE 6.9 mph - 0.03 in Rain Light Rain
9:55 AM 60.1 °F 57.9 °F 93% 30.28 in 4.0 mi NNE 5.8 mph - 0.06 in Rain Rain
10:15 AM 60.3 °F 58.1 °F 93% 30.28 in 7.0 mi NNE 5.8 mph - 0.01 in Rain Rain
10:35 AM 60.6 °F 58.1 °F 91% 30.29 in 10.0 mi NE 4.6 mph - 0.02 in Rain Light Rain
10:55 AM 60.8 °F 58.1 °F 91% 30.30 in 10.0 mi NNE 5.8 mph - 0.02 in Rain Light Rain
11:15 AM 61.3 °F 58.5 °F 90% 30.30 in 10.0 mi NNE 4.6 mph - N/A   Drizzle
11:35 AM 61.7 °F 58.6 °F 90% 30.30 in 10.0 mi North 3.5 mph - 0.01 in   Drizzle
11:55 AM 61.5 °F 58.6 °F 90% 30.29 in 7.0 mi ENE 5.8 mph - 0.01 in   Drizzle
12:15 PM 62.2 °F 59.2 °F 90% 30.28 in 7.0 mi NE 5.8 mph - N/A   Light Drizzle
12:35 PM 62.1 °F 58.8 °F 89% 30.28 in 10.0 mi Calm Calm - N/A   Overcast
12:55 PM 62.1 °F 59.0 °F 90% 30.28 in 10.0 mi ENE 5.8 mph - N/A   Overcast
1:15 PM 62.1 °F 58.6 °F 89% 30.27 in 10.0 mi ENE 3.5 mph - N/A   Overcast
1:35 PM 62.6 °F 58.8 °F 87% 30.28 in 7.0 mi ENE 3.5 mph - N/A Rain Rain
1:55 PM 62.4 °F 59.4 °F 90% 30.27 in 5.0 mi Calm Calm - N/A   Overcast
2:15 PM 63.0 °F 59.4 °F 88% 30.27 in 5.0 mi Calm Calm - N/A   Overcast
2:35 PM 63.9 °F 59.9 °F 87% 30.26 in 10.0 mi Calm Calm - N/A   Overcast
2:55 PM 64.2 °F 59.2 °F 84% 30.25 in 10.0 mi Calm Calm - N/A   Overcast
3:15 PM 64.4 °F 59.2 °F 83% 30.25 in 10.0 mi NW 3.5 mph - N/A   Overcast
3:35 PM 64.6 °F 59.4 °F 83% 30.25 in 10.0 mi NNE 4.6 mph - N/A   Overcast
3:55 PM 64.4 °F 59.2 °F 83% 30.25 in 10.0 mi Calm Calm - N/A   Overcast
4:15 PM 64.8 °F 59.5 °F 83% 30.24 in 10.0 mi East 3.5 mph - N/A   Overcast
4:35 PM 64.9 °F 59.0 °F 81% 30.24 in 10.0 mi Calm Calm - N/A   Overcast
4:55 PM 65.5 °F 59.4 °F 81% 30.24 in 10.0 mi Calm Calm - N/A   Overcast
5:15 PM 66.2 °F 59.4 °F 79% 30.23 in 10.0 mi Calm Calm - N/A   Overcast
5:35 PM 66.4 °F 59.7 °F 79% 30.23 in 10.0 mi NE 3.5 mph - N/A   Overcast
5:55 PM 66.7 °F 59.9 °F 79% 30.23 in 10.0 mi ENE 5.8 mph - N/A   Overcast
6:15 PM 66.4 °F 59.5 °F 79% 30.23 in 10.0 mi ENE 3.5 mph - N/A   Overcast
6:35 PM 66.2 °F 59.2 °F 78% 30.23 in 10.0 mi ENE 3.5 mph - N/A   Overcast
6:55 PM 66.2 °F 59.4 °F 79% 30.24 in 10.0 mi Calm Calm - N/A   Overcast
7:15 PM 65.7 °F 59.9 °F 82% 30.24 in 10.0 mi Calm Calm - N/A   Overcast
7:35 PM 65.3 °F 60.3 °F 84% 30.24 in 10.0 mi East 3.5 mph - N/A   Overcast
7:55 PM 64.8 °F 60.3 °F 85% 30.24 in 10.0 mi ENE 3.5 mph - N/A   Overcast
8:15 PM 64.4 °F 60.1 °F 86% 30.24 in 10.0 mi ENE 3.5 mph - N/A   Overcast
8:35 PM 63.9 °F 60.3 °F 88% 30.23 in 10.0 mi ENE 4.6 mph - N/A   Overcast
8:55 PM 63.1 °F 59.9 °F 89% 30.23 in 10.0 mi NE 4.6 mph - N/A   Mostly Cloudy
9:15 PM 62.8 °F 59.7 °F 90% 30.24 in 7.0 mi Calm Calm - N/A   Clear
9:35 PM 62.1 °F 59.2 °F 90% 30.25 in 7.0 mi Calm Calm - N/A   Scattered Clouds
9:55 PM 62.1 °F 59.9 °F 93% 30.26 in 5.0 mi Calm Calm - N/A   Overcast
10:15 PM 62.6 °F 60.1 °F 91% 30.25 in 7.0 mi Calm Calm - N/A   Overcast
10:35 PM 62.8 °F 60.3 °F 91% 30.25 in 7.0 mi Calm Calm - N/A   Overcast
10:55 PM 62.6 °F 60.3 °F 92% 30.25 in 5.0 mi Calm Calm - N/A   Overcast
11:15 PM 62.6 °F 60.4 °F 93% 30.25 in 5.0 mi Calm Calm - N/A   Overcast
11:35 PM 62.2 °F 60.1 °F 93% 30.24 in 5.0 mi Calm Calm - N/A   Overcast
11:55 PM 62.4 °F 60.3 °F 93% 30.24 in 5.0 mi Calm Calm - N/A   Overcast